Regional Weather Roundup
Issued by NWS Charleston, SC

Current Version | Previous Version | Graphics & Text | Print | Product List | Glossary On
Versions: 1 2 3 4 5 6 7 8 9 10 11 12 13 14 15 16 17 18 19 20 21 22 23 24 25 26 27 28 29 30 31 32 33 34 35 36 37 38 39 40 41 42 43 44 45 46 47 48 49 50
000 ASUS42 KCHS 232311 RWRCHS REGIONAL WEATHER ROUNDUP NATIONAL WEATHER SERVICE CHARLESTON SC 600 PM EST THU FEB 23 2017 NOTE: "FAIR" INDICATES FEW OR NO CLOUDS BELOW 12,000 FEET WITH NO SIGNIFICANT WEATHER AND/OR OBSTRUCTIONS TO VISIBILITY. NOT ALL STATIONS ARE QUALITY CONTROLLED. USE DATA WITH CAUTION... ESPECIALLY DEWPOINT OBSERVATIONS. SCZ027-030-031-034>040-042>050-240000- ...SOUTHEAST SOUTH CAROLINA... CITY SKY/WX TMP DP RH WIND PRES REMARKS N CHARLESTON FAIR 70 60 70 E14 29.83R WATERFRONT PRK N/A 68 63 84 E14 29.81R MOUNT PLEASANT FAIR 70 61 73 CALM 29.84R JOHNS ISLAND FAIR 68 63 83 NE10 29.83S PINOPOLIS N/A N/A N/A N/A E7 29.76R MONCKS CORNER FAIR 70 55 60 E7 29.84R SUMMERVILLE FAIR 72 57 60 E5 29.84R BEAUFORT MCAS FAIR 71 63 75 E8 29.82R BEAUFORT ARPT FAIR 68 61 77 E8 29.82R HILTON HEAD IS CLEAR 66 63 88 NE12 29.83R WALTERBORO MOCLDY 72 57 60 E8 29.83S ALLENDALE CLOUDY 75 57 53 E7 29.82R ...SOUTHERN MIDLANDS AND PEE DEE... CITY SKY/WX TMP DP RH WIND PRES REMARKS GEORGETOWN FAIR 64 57 77 NE5 29.86R KINGSTREE FAIR 68 55 64 E7 29.85R ORANGEBURG FAIR 73 55 53 E5 29.83R BARNWELL FAIR 75 57 53 NE6 29.82S AIKEN FAIR 70 52 52 NE3 29.87R MANNING FAIR 68 55 64 MISG 29.85R COLUMBIA FAIR 76 50 40 E5 29.83R SUMTER FAIR 72 55 53 SE5 29.82R FLORENCE MOCLDY 70 57 63 S9 29.85R MYRTLE BEACH MOCLDY 66 57 72 E12 29.88R N MYRTLE BEACH FAIR 66 58 75 E10 29.86R $$ GAZ063-065-086>088-099>101-113>116-118-119-134>141-150-240000- ...SOUTHEAST GEORGIA... CITY SKY/WX TMP DP RH WIND PRES REMARKS SAVANNAH ARPT MOCLDY 71 58 63 E12 29.82R HUNTER AAF FAIR 71 63 76 E13 29.79R FORT STEWART FAIR 71 60 69 E6 29.79R STATESBORO FAIR 72 63 72 E3 29.82R SYLVANIA CLOUDY N/A N/A N/A SE5 29.83R CLAXTON FAIR N/A N/A N/A NE5 29.82R ...CSRA...CENTRAL AND FAR SOUTHEAST GEORGIA... CITY SKY/WX TMP DP RH WIND PRES REMARKS THOMSON FAIR 75 56 51 E3 29.87R AUGUSTA-BUSH FAIR 75 53 46 CALM 29.81S AUGUSTA-DANIEL FAIR 75 49 39 E6 29.83R SWAINSBORO FAIR 73 55 53 SE6 29.82R VIDALIA MOCLDY 73 63 68 E8 29.81R EASTMAN FAIR 77 42 28 E3 29.82S HAZLEHURST MOCLDY 75 62 62 E5 29.79S ALMA FAIR 72 62 71 VRB6 29.79R WAYCROSS FAIR 74 67 78 E8 29.79R JESUP FAIR 72 61 68 E8 29.81R BAXLEY FAIR 73 64 73 E7 29.80R BRUNSWICK FAIR 70 63 78 NE10G20 29.80R SAINT SIMONS FAIR 68 61 78 NE12G22 29.78R $$ SCZ027-028-034-036>038-045-046-048>050-GAZ119-141-240000- ...LAKE AND SUPPLEMENTAL COASTAL OBSERVATIONS... STATION/POSITION TIME TEMP WIND PRES WAVE SWELL AIR SEA DIR/SP/G HT/PER HT/PER/DIR (UTC) (F) (DEG/KT/KT) (MB) (FT/S) (FT/S/D) WINYAH BAY NOT AVBL LAKE MURRAY 2220 77 CALM 1009.5S ACE BASIN NERRS NOT AVBL FORT PULASKI 2248 64 62 70/ 13/ 17 1009.8R SAPELO ISLAND 2200 71 50/ 12 1008.0 $$ ANZ835-935-AMZ111-154-330-350-352-354-370-450-454-472-240000- ...C-MAN AND BUOY OBSERVATIONS... STATION/POSITION TIME TEMP WIND PRES WAVE SWELL AIR SEA DIR/SP/G HT/PER HT/PER/DIR (UTC) (F) (DEG/KT/KT) (MB) (FT/S) (FT/S/D) BUOY 41004 2250 71 70 70/ 14/ 17 1009.0R 10/ 9 8/150/ 9 BUOY 41008 2250 65 63 30/ 14/ 16 1007.9R 7/ 8 5/130/ 8 FOLLY BEACH CMAN 2200 63 50/ 13/ 15 1010.5R CAPERS NEARSHORE 2208 62 60 60/ 10/ 14 1009.8S FRIPP NEARSHORE 2208 63 61 50/ 12/ 16 1009.3R STATION/POSITION TIME TEMP WIND PRES WAVE SWELL AIR SEA DIR/SP/G HT/PER HT/PER/DIR (UTC) (F) (DEG/KT/KT) (MB) (FT/S) (FT/S/D) 5E ST. MARYS GA 2300 63 N/A 7/10 2/110/11 FRYING PAN BUOY 2250 90/ 17/ 21 1010.5R 7/ 8 5/160/ 8 BUOY 41025 2250 70 73 140/ 17/ 19 1012.7R 5/ 6 2/ 80/10 CAPE LOOKOUT NC 2200 65 120/ 10/ 10 1011.7S BUOY 41002 2250 68 70 80/ 19/ 23 1009.8F 9/ 8 5/ 40/12 BUOY 41010 NOT AVBL ST AUGUSTINE FL 2300 66 67 360/ 20/ 21 1007.2R $$

USA.gov is the U.S. government's official web portal to all federal, state and local government web resources and services.